GW3787 Weather Reports


Display with metric or nautical units.
time (UTC)temp
F
wind
direction
speed
MPH
gust
MPH
rain 1hr
in
rain 24hr
in
rain mn
in
humidity
%
barometer
mb
20260508093010 41 291 0.0 0.0 0.00 0.00 0.00 64 1008.5
20260508091510 42 291 0.0 1.0 0.00 0.00 0.00 63 1008.5
20260508090007 41 291 0.0 1.0 0.00 0.00 0.00 64 1008.5
20260508084504 42 291 0.0 2.0 0.00 0.00 0.00 62 1008.6
20260508083004 43 291 0.0 0.0 0.00 0.00 0.00 61 1008.4
20260508081503 43 291 0.0 4.0 0.00 0.00 0.00 61 1008.5
20260508080003 44 291 1.0 3.0 0.00 0.00 0.00 59 1008.6
20260508074608 42 291 0.0 3.0 0.00 0.00 0.00 62 1008.6
20260508073100 43 291 0.0 2.0 0.00 0.00 0.00 60 1008.6
20260508071556 43 291 0.0 2.0 0.00 0.00 0.00 59 1008.5
20260508070052 44 291 0.0 2.0 0.00 0.00 0.00 58 1008.4
20260508064549 45 291 0.0 3.0 0.00 0.00 0.00 55 1008.4
20260508063054 45 291 0.0 4.0 0.00 0.00 0.00 55 1008.3
20260508061547 45 291 0.0 1.0 0.00 0.00 0.00 55 1008.3
20260508060056 47 291 0.0 5.0 0.00 0.01 0.00 53 1008.2
20260508054618 48 291 0.0 2.0 0.00 0.01 0.00 50 1008.0
20260508053049 49 291 0.0 5.0 0.00 0.01 0.00 49 1007.9
20260508050041 52 291 0.0 3.0 0.00 0.01 0.00 47 1007.9
20260508044540 52 291 0.0 3.0 0.00 0.01 0.00 49 1007.9
20260508043039 52 291 0.0 2.0 0.00 0.01 0.00 47 1007.7
20260508041542 53 291 0.0 3.0 0.00 0.01 0.00 45 1007.5
20260508040038 54 291 0.0 0.0 0.00 0.01 0.00 44 1007.6
20260508034546 54 291 0.0 2.0 0.00 0.01 0.00 44 1007.4
20260508033037 54 291 0.0 3.0 0.00 0.01 0.00 46 1007.5
20260508031537 55 291 0.0 0.0 0.00 0.01 0.00 45 1007.3
20260508030043 55 291 0.0 3.0 0.00 0.01 0.00 46 1007.1
20260508024542 54 291 0.0 5.0 0.00 0.01 0.00 47 1007.1
20260508023035 55 228 0.0 3.0 0.00 0.01 0.00 44 1006.8
20260508021536 60 318 0.0 0.0 0.00 0.01 0.00 34 1006.4
20260508020035 63 318 0.0 5.0 0.00 0.01 0.00 32 1006.2
20260508014538 65 255 1.0 5.0 0.00 0.01 0.00 30 1006.2
20260508013034 66 24 1.0 8.0 0.00 0.01 0.00 30 1006.0
20260508011534 66 27 6.0 14.0 0.00 0.01 0.00 30 1005.9
20260508010045 66 24 6.0 16.0 0.00 0.01 0.00 30 1005.8
20260508004532 67 29 8.0 16.0 0.00 0.01 0.00 30 1005.8
20260508003031 67 10 7.0 13.0 0.00 0.01 0.00 30 1005.9
20260508001531 68 29 3.0 10.0 0.00 0.01 0.00 27 1005.9
20260508000030 69 5 0.0 10.0 0.00 0.01 0.00 27 1005.7
20260507234529 69 35 7.0 17.0 0.00 0.01 0.00 26 1005.8
20260507233030 69 20 5.0 15.0 0.00 0.01 0.00 27 1005.7
20260507231526 68 5 3.0 15.0 0.00 0.01 0.00 29 1005.7
20260507230032 67 27 6.0 13.0 0.00 0.01 0.00 28 1005.7
20260507224524 68 315 5.0 11.0 0.00 0.01 0.00 29 1005.8
20260507223023 67 37 8.0 14.0 0.00 0.01 0.00 29 1005.9
20260507221522 68 297 7.0 16.0 0.00 0.01 0.00 30 1005.9
20260507220021 68 355 1.0 12.0 0.00 0.01 0.00 31 1006.0
20260507214521 68 353 4.0 12.0 0.00 0.01 0.00 31 1006.1
20260507213018 68 351 4.0 17.0 0.00 0.01 0.00 30 1006.4
20260507211531 67 360 4.0 20.0 0.00 0.01 0.00 32 1006.5
20260507210016 68 354 4.0 17.0 0.00 0.01 0.00 31 1006.5
20260507204518 69 323 4.0 14.0 0.00 0.01 0.00 30 1006.6
20260507203016 66 298 0.0 12.0 0.00 0.01 0.00 37 1006.7
20260507201513 66 355 2.0 16.0 0.00 0.01 0.00 32 1006.8
20260507200012 67 322 4.0 14.0 0.00 0.01 0.00 32 1006.7
20260507194511 66 323 2.0 13.0 0.00 0.01 0.00 33 1006.7
20260507193011 65 323 4.0 20.0 0.00 0.01 0.00 32 1006.6
20260507191510 66 347 3.0 19.0 0.00 0.01 0.00 35 1006.6
20260507190010 68 347 4.0 15.0 0.00 0.01 0.00 31 1006.6
20260507184507 67 15 7.0 15.0 0.00 0.01 0.00 31 1006.6
20260507183006 67 14 2.0 10.0 0.00 0.01 0.00 34 1006.7
20260507181503 67 315 5.0 12.0 0.00 0.01 0.00 35 1006.9
20260507180103 66 351 2.0 13.0 0.00 0.01 0.00 37 1006.9
20260507174608 65 341 6.0 15.0 0.00 0.01 0.00 39 1007.2
20260507173053 65 27 4.0 12.0 0.00 0.01 0.00 37 1007.4
20260507171603 64 19 5.0 15.0 0.00 0.01 0.00 38 1007.7
20260507170047 64 347 6.0 15.0 0.00 0.01 0.00 40 1007.8
20260507164548 64 10 5.0 13.0 0.00 0.01 0.00 42 1007.8
20260507163047 63 326 1.0 11.0 0.00 0.01 0.00 44 1007.8
20260507161541 63 328 3.0 14.0 0.00 0.01 0.00 44 1007.9
20260507160043 62 28 8.0 20.0 0.00 0.01 0.00 43 1007.9
20260507154529 62 360 2.0 14.0 0.00 0.01 0.00 46 1008.1
20260507153022 61 325 3.0 11.0 0.00 0.01 0.00 47 1008.0
20260507151517 59 314 3.0 10.0 0.00 0.01 0.00 50 1008.0
20260507150017 58 321 2.0 8.0 0.00 0.01 0.00 53 1008.0
20260507144521 57 316 3.0 8.0 0.00 0.01 0.00 54 1008.0
20260507143013 57 313 2.0 11.0 0.00 0.01 0.00 62 1008.0
20260507141514 53 301 5.0 8.0 0.00 0.01 0.00 67 1008.0
20260507140006 51 309 3.0 6.0 0.00 0.01 0.00 71 1008.2
20260507134503 52 352 1.0 11.0 0.00 0.01 0.00 63 1008.6
20260507133113 54 334 0.0 6.0 0.00 0.01 0.00 53 1008.4
20260507131556 53 332 4.0 6.0 0.00 0.01 0.00 55 1008.2
20260507130104 51 332 0.0 3.0 0.00 0.01 0.00 61 1008.0
20260507124602 49 332 2.0 3.0 0.00 0.01 0.00 63 1007.9
20260507123042 47 332 0.0 3.0 0.00 0.01 0.00 67 1007.9
20260507121540 45 332 0.0 3.0 0.00 0.01 0.00 70 1007.8
20260507120040 45 332 0.0 1.0 0.00 0.01 0.00 67 1007.8
20260507114551 47 332 0.0 1.0 0.00 0.01 0.00 67 1007.7
20260507113037 47 332 0.0 3.0 0.00 0.01 0.00 67 1007.6
20260507111532 46 332 0.0 1.0 0.00 0.01 0.00 69 1007.6
20260507110039 45 332 0.0 4.0 0.00 0.01 0.00 69 1007.8
20260507104531 44 332 0.0 1.0 0.00 0.01 0.00 70 1007.6
20260507103030 43 332 0.0 3.0 0.00 0.01 0.00 70 1007.5
20260507101530 42 332 0.0 3.0 0.00 0.01 0.00 70 1007.5
20260507100029 42 332 0.0 0.0 0.00 0.01 0.00 69 1007.5
20260507094527 43 332 0.0 2.0 0.00 0.01 0.00 66 1007.5